EST,Max TemperatureF,Mean TemperatureF,Min TemperatureF,Max Dew PointF,MeanDew PointF,Min DewpointF,Max Humidity, Mean Humidity, Min Humidity, Max Sea Level PressureIn, Mean Sea Level PressureIn, Min Sea Level PressureIn, Max VisibilityMiles, Mean VisibilityMiles, Min VisibilityMiles, Max Wind SpeedMPH, Mean Wind SpeedMPH, Max Gust SpeedMPH,PrecipitationIn, CloudCover, Events, WindDirDegrees
2012-12-1,49,38,27,36,30,23,100,81,61,30.40,30.32,30.20,10,8,4,13,5,18,0.00,8,,117
2012-12-2,53,50,47,52,44,36,96,79,61,30.19,30.02,29.91,10,8,2,20,12,26,0.18,8,Rain,225
2012-12-3,53,48,43,45,41,40,92,82,71,30.25,30.17,30.09,10,10,8,10,4,,0.00,6,,211
2012-12-4,70,58,46,56,51,41,96,74,51,30.08,29.96,29.88,10,9,2,22,11,29,0.32,7,Rain,231
2012-12-5,48,39,30,41,27,17,83,69,54,30.39,30.19,29.97,10,9,3,24,12,31,T,7,Snow,293
2012-12-6,40,32,24,23,20,17,81,63,44,30.42,30.27,30.06,10,10,10,13,5,16,0.00,6,,162
2012-12-7,45,40,35,39,32,19,89,69,48,30.05,30.00,29.95,10,10,10,12,5,17,0.00,8,,192
2012-12-8,46,41,36,45,40,29,100,91,82,30.17,29.88,29.75,10,6,1,17,6,23,0.08,8,Rain,276
2012-12-9,46,39,31,40,30,25,92,81,70,30.30,30.15,29.79,10,10,5,18,8,23,0.16,7,Rain,80
2012-12-10,53,44,35,48,39,30,93,85,76,29.75,29.63,29.52,10,10,10,24,12,31,0.11,8,Rain,257
2012-12-11,35,31,26,28,25,23,92,84,75,30.20,30.00,29.79,10,8,1,14,5,18,T,7,Snow,315
2012-12-12,41,36,30,28,28,25,92,76,59,30.44,30.33,30.20,10,10,7,21,7,28,T,6,Snow,234
2012-12-13,44,36,27,27,22,21,85,63,40,30.46,30.38,30.21,10,10,10,16,7,24,0.00,3,,207
2012-12-14,45,38,30,31,26,19,85,69,52,30.28,30.21,30.15,10,10,7,16,7,21,0.00,4,,243
2012-12-15,40,35,30,32,30,30,92,81,70,30.33,30.22,30.00,10,9,4,14,7,18,T,8,Rain,94
2012-12-16,55,47,39,43,37,31,86,73,59,29.98,29.82,29.72,10,10,7,21,10,29,0.03,7,Rain,166
2012-12-17,49,47,44,45,43,42,100,90,80,29.75,29.69,29.55,10,9,4,12,5,14,0.21,8,Rain,191
2012-12-18,45,42,39,43,39,27,100,80,59,29.73,29.55,29.47,10,8,2,18,8,25,0.40,8,Rain,290
2012-12-19,43,37,31,34,29,25,92,73,53,30.20,29.98,29.72,10,10,6,17,8,22,0.00,6,,299
2012-12-20,42,35,27,35,26,22,85,70,54,30.21,29.93,29.45,10,10,7,23,11,31,0.16,6,Rain,122
2012-12-21,42,37,31,37,33,27,100,91,82,29.47,29.27,29.19,10,5,1,23,10,32,0.46,8,Rain-Snow,262
2012-12-22,32,30,27,27,24,19,92,76,59,29.91,29.62,29.33,10,4,0,32,18,43,0.07,7,Fog-Snow,286
2012-12-23,35,32,29,27,24,18,85,74,63,30.02,29.88,29.79,10,10,3,23,12,29,T,8,Snow,253
2012-12-24,32,31,29,27,22,19,75,67,59,30.08,29.97,29.88,10,7,0,15,8,18,0.06,8,Fog-Snow,140
2012-12-25,31,30,29,28,25,21,92,82,72,30.35,30.11,29.90,10,7,1,17,6,20,0.02,8,Snow,33
2012-12-26,30,26,22,27,21,14,92,80,68,30.36,30.06,29.78,10,5,0,26,12,33,0.67,8,Fog-Snow,72
2012-12-27,29,27,24,27,22,19,92,87,81,30.05,29.86,29.72,10,4,0,28,14,35,0.25,8,Snow,336
2012-12-28,28,23,17,24,20,16,91,83,75,30.15,30.10,30.04,10,9,2,16,7,21,T,7,Snow,255
2012-12-29,29,23,16,27,23,14,96,90,84,30.03,29.81,29.66,10,3,0,17,7,21,0.31,8,Fog-Snow,10
2012-12-30,28,25,22,22,18,15,88,73,58,30.25,30.04,29.81,10,6,2,23,12,37,0.08,7,Snow,289
2012-12-31,35,31,26,27,23,18,81,69,56,30.18,29.98,29.84,10,10,9,24,15,32,T,8,Snow,254